Home   Weather   Hobbs   Past weeks
Flag for USA

Past Weather in Hobbs, New Mexico, USA — Yesterday and Last 2 Weeks

Now
46 °F

Clear.


Feels Like: 42 °F
Forecast: 74 / 44 °F
Wind: 9 mph from West

Location: Hobbs / Lea County

Current Time: Feb 16, 2020 at 11:55:20 pm

Latest Report: Feb 16, 2020 at 10:55 pm


Visibility: 10 mi

Pressure: 29.89 "Hg (26.15 "Hg at 1101m altitude)

Humidity: 43%

Dew Point: 25 °F

Location of HobbsLocation

Past Weather in Hobbs — Graph

°F

Hobbs Temperature Yesterday

Maximum temperature yesterday: 66 °F (at 1:50 pm)
Minimum temperature yesterday: 34 °F (at 3:55 am)
Average temperature yesterday: 45 °F

High & Low Weather Summary for the Past Weeks

 TemperatureHumidityPressure
High72 °F (Feb 3, 2:50 pm)100% (Feb 10, 11:15 pm)30.27 "Hg (Feb 10, 11:15 pm)
Low12 °F (Feb 6, 12:55 am)8% (Feb 2, 4:50 pm)29.61 "Hg (Feb 3, 4:50 pm)
Average40 °F66%29.98 "Hg
* Reported Feb 1 10:15 pm — Feb 16 10:15 pm, Hobbs. Weather by CustomWeather, © 2020

Note: Actual official high and low records may vary slightly from our data, if they occured in-between our weather recording intervals... More about our weather records

Hobbs Weather History for the Previous 24 Hours

Scroll right to see more
 ConditionsComfort  
Time TempWeatherWind HumidityBarometerVisibility
10:15 pm
Sun, Feb 16
45 °FClear.No wind49%29.90 "Hg10 mi
9:55 pm43 °FClear.7 mph53%29.90 "Hg10 mi
9:35 pm48 °FClear.8 mph40%29.90 "Hg10 mi
9:15 pm50 °FClear.9 mph37%29.90 "Hg10 mi
8:55 pm50 °FClear.12 mph37%29.90 "Hg10 mi
8:35 pm48 °FClear.9 mph43%29.91 "Hg10 mi
8:15 pm50 °FClear.6 mph37%29.91 "Hg10 mi
7:55 pm48 °FClear.8 mph40%29.91 "Hg10 mi
7:35 pm50 °FClear.8 mph37%29.91 "Hg10 mi
7:15 pm55 °FClear.8 mph26%29.90 "Hg10 mi
6:35 pm57 °FClear.6 mph23%29.90 "Hg10 mi
6:15 pm59 °FClear.8 mph21%29.89 "Hg10 mi
4:50 pm70 °FSunny.12 mph12%29.90 "Hg10 mi
3:50 pm72 °FSunny.12 mph11%29.91 "Hg10 mi
2:50 pm72 °FSunny.17 mph11%29.93 "Hg10 mi
1:50 pm72 °FSunny.17 mph11%29.93 "Hg10 mi
12:50 pm70 °FSunny.14 mph13%29.97 "Hg10 mi
11:50 am68 °FSunny.12 mph17%30.00 "Hg10 mi
10:50 am66 °FSunny.12 mph19%30.03 "Hg10 mi
9:50 am64 °FSunny.15 mph21%30.06 "Hg10 mi
8:50 am61 °FSunny.16 mph25%30.07 "Hg10 mi
7:50 am52 °FSunny.13 mph38%30.05 "Hg10 mi
6:50 am43 °FSunny.14 mph53%30.03 "Hg10 mi
5:50 am39 °FClear.13 mph65%30.03 "Hg10 mi
5:35 am39 °FClear.12 mph65%30.03 "Hg10 mi
5:15 am41 °FClear.12 mph61%30.02 "Hg10 mi
4:55 am41 °FClear.10 mph61%30.01 "Hg10 mi
4:35 am41 °FClear.12 mph61%30.01 "Hg10 mi
4:15 am43 °FClear.10 mph57%30.01 "Hg10 mi
3:55 am43 °FClear.12 mph53%30.01 "Hg10 mi
3:35 am43 °FClear.10 mph53%30.02 "Hg10 mi
3:15 am43 °FClear.10 mph53%30.02 "Hg10 mi
2:55 am45 °FClear.13 mph53%30.02 "Hg10 mi
2:35 am41 °FQuite cool.N/A61%30.03 "HgN/A
2:15 am41 °FClear.10 mph61%30.03 "Hg10 mi
1:55 am41 °FClear.8 mph61%30.03 "Hg10 mi
1:15 am45 °FClear.13 mph53%30.04 "Hg10 mi
12:55 am45 °FClear.10 mph53%30.04 "Hg10 mi
12:35 am46 °FClear.13 mph50%30.05 "Hg10 mi
12:15 am48 °FClear.14 mph46%30.04 "Hg10 mi
11:55 pm
Sat, Feb 15
46 °FClear.14 mph53%30.05 "Hg10 mi
11:35 pm46 °FClear.12 mph53%30.04 "Hg10 mi
11:15 pm48 °FClear.12 mph50%30.05 "Hg10 mi
Weather by CustomWeather, © 2020

See weather overview

Advertising